User: anonymous
Location: Frydek-Mistek
(49.6830°N, 18.3330°E)
Time: 02:22:14
(UTC+02:00)
Language:

Courier 1B Rocket - Orbit

View from above orbital plane
View from above orbital plane
View from above satellite
View from above satellite

Ground track
Ground track

The orbit data is extracted from the following two-line orbital elements,

1 00059U 60013B   14266.80719742  .00000131  00000-0  59540-4 0  9689
2 00059 028.2471 172.3106 0189174 354.4236 005.4214 13.52897834663367
Epoch (UTC): 23 September 2014 19:22:21
Eccentricity: 0.0189174
inclination: 28.2471°
perigee height: 921 km
apogee height: 1202 km
right ascension of ascending node: 172.3106°
argument of perigee: 354.4236°
revolutions per day: 13.52897834
mean anomaly at epoch: 5.4214°
orbit number at epoch: 66336

The dashed part of the orbit path shows where the satellite is in the earth's shadow,  

DLR